| time (UTC) | temp C | wind direction | speed KPH | gust KPH | rain 1hr cm | rain 24hr cm | rain mn cm | humidity % | barometer mb |
| 20260506070512 | 16 | 20 | 1.6 | 9.7 | 0.00 | 0.00 | 0.00 | 73 | 1009.6 |
| 20260506062512 | 17 | 312 | 1.6 | 6.4 | 0.00 | 0.00 | 0.00 | 74 | 1009.2 |
| 20260506062016 | 17 | 0 | 0.0 | 9.7 | 0.00 | 0.00 | 0.00 | 74 | 1009.2 |
| 20260506061530 | 17 | 0 | 3.2 | 9.7 | 0.00 | 0.00 | 0.00 | 74 | 1009.2 |
| 20260506061014 | 17 | 56 | 3.2 | 9.7 | 0.00 | 0.00 | 0.00 | 74 | 1009.2 |
| 20260506060515 | 17 | 0 | 1.6 | 12.9 | 0.00 | 0.00 | 0.00 | 74 | 1009.3 |
| 20260506051014 | 18 | 9 | 4.8 | 16.1 | 0.00 | 0.00 | 0.00 | 73 | 1009.2 |
| 20260506050513 | 18 | 0 | 4.8 | 19.3 | 0.00 | 0.00 | 0.00 | 73 | 1009.3 |
| 20260506045014 | 18 | 340 | 1.6 | 8.0 | 0.00 | 0.00 | 0.00 | 74 | 1009.4 |
| 20260506044536 | 18 | 48 | 1.6 | 12.9 | 0.00 | 0.00 | 0.00 | 73 | 1009.2 |
| 20260506044012 | 18 | 31 | 3.2 | 16.1 | 0.00 | 0.00 | 0.00 | 73 | 1009.2 |
| 20260506043513 | 18 | 32 | 4.8 | 17.7 | 0.00 | 0.00 | 0.00 | 73 | 1009.2 |
| 20260506043030 | 19 | 30 | 4.8 | 17.7 | 0.00 | 0.00 | 0.00 | 73 | 1009.2 |
| 20260506042511 | 19 | 25 | 4.8 | 16.1 | 0.00 | 0.00 | 0.00 | 73 | 1009.1 |
| 20260506042015 | 20 | 352 | 3.2 | 16.1 | 0.00 | 0.00 | 0.00 | 73 | 1009.1 |
| 20260506041530 | 20 | 327 | 3.2 | 11.3 | 0.00 | 0.00 | 0.00 | 73 | 1008.9 |
| 20260506041013 | 20 | 12 | 3.2 | 11.3 | 0.00 | 0.00 | 0.00 | 73 | 1008.7 |
| 20260506040513 | 20 | 48 | 1.6 | 8.0 | 0.00 | 0.00 | 0.00 | 73 | 1008.6 |
| 20260506040036 | 20 | 1 | 1.6 | 9.7 | 0.00 | 0.00 | 0.00 | 73 | 1008.6 |
| 20260506035511 | 20 | 56 | 3.2 | 12.9 | 0.00 | 0.00 | 0.00 | 72 | 1008.5 |
| 20260506035013 | 20 | 10 | 3.2 | 12.9 | 0.00 | 0.00 | 0.00 | 73 | 1008.6 |
| 20260506034533 | 20 | 12 | 1.6 | 14.5 | 0.00 | 0.00 | 0.00 | 72 | 1008.5 |
| 20260506034013 | 21 | 7 | 4.8 | 19.3 | 0.00 | 0.00 | 0.00 | 72 | 1008.3 |
| 20260506033511 | 21 | 4 | 6.4 | 19.3 | 0.00 | 0.00 | 0.00 | 71 | 1008.4 |
| 20260506033030 | 21 | 25 | 3.2 | 12.9 | 0.00 | 0.00 | 0.00 | 72 | 1008.0 |
| 20260506032514 | 21 | 0 | 0.0 | 9.7 | 0.00 | 0.00 | 0.00 | 72 | 1008.2 |
| 20260506032015 | 21 | 351 | 1.6 | 12.9 | 0.00 | 0.00 | 0.00 | 72 | 1008.2 |
| 20260506031539 | 21 | 2 | 1.6 | 12.9 | 0.00 | 0.00 | 0.00 | 72 | 1008.0 |
| 20260506031012 | 21 | 12 | 1.6 | 17.7 | 0.00 | 0.00 | 0.00 | 72 | 1007.7 |
| 20260506030514 | 22 | 355 | 4.8 | 17.7 | 0.00 | 0.00 | 0.00 | 71 | 1007.7 |
| 20260506030031 | 22 | 64 | 3.2 | 14.5 | 0.00 | 0.00 | 0.00 | 71 | 1007.9 |
| 20260506025511 | 22 | 359 | 3.2 | 14.5 | 0.00 | 0.00 | 0.00 | 71 | 1007.7 |
| 20260506025017 | 22 | 20 | 3.2 | 12.9 | 0.00 | 0.00 | 0.00 | 71 | 1007.5 |
| 20260506024533 | 22 | 47 | 3.2 | 12.9 | 0.00 | 0.00 | 0.00 | 71 | 1007.4 |
| 20260506024011 | 22 | 0 | 3.2 | 12.9 | 0.00 | 0.00 | 0.00 | 71 | 1007.3 |
| 20260506023513 | 23 | 56 | 4.8 | 14.5 | 0.00 | 0.00 | 0.00 | 70 | 1006.9 |
| 20260506023050 | 23 | 341 | 3.2 | 14.5 | 0.00 | 0.00 | 0.00 | 70 | 1006.7 |
| 20260506022513 | 23 | 8 | 3.2 | 12.9 | 0.00 | 0.00 | 0.00 | 70 | 1006.7 |
| 20260506022021 | 23 | 354 | 3.2 | 12.9 | 0.00 | 0.00 | 0.00 | 69 | 1006.5 |
| 20260506021552 | 23 | 327 | 1.6 | 6.4 | 0.00 | 0.00 | 0.00 | 69 | 1006.4 |
| 20260506021018 | 23 | 0 | 0.0 | 4.8 | 0.00 | 0.00 | 0.00 | 68 | 1006.2 |
| 20260506020513 | 23 | 340 | 0.0 | 6.4 | 0.00 | 0.00 | 0.00 | 68 | 1006.1 |
| 20260506020032 | 23 | 0 | 0.0 | 8.0 | 0.00 | 0.00 | 0.00 | 67 | 1005.9 |
| 20260506015513 | 23 | 335 | 3.2 | 9.7 | 0.00 | 0.00 | 0.00 | 66 | 1006.2 |
| 20260506015015 | 24 | 360 | 3.2 | 9.7 | 0.00 | 0.00 | 0.00 | 66 | 1006.1 |
| 20260506014532 | 24 | 0 | 1.6 | 9.7 | 0.00 | 0.00 | 0.00 | 66 | 1006.1 |
| 20260506014013 | 24 | 341 | 3.2 | 12.9 | 0.00 | 0.00 | 0.00 | 66 | 1006.2 |
| 20260506013511 | 24 | 0 | 3.2 | 12.9 | 0.00 | 0.00 | 0.00 | 67 | 1006.0 |
| 20260506013035 | 24 | 351 | 1.6 | 9.7 | 0.00 | 0.00 | 0.00 | 66 | 1005.8 |
| 20260506012513 | 25 | 341 | 3.2 | 14.5 | 0.00 | 0.00 | 0.00 | 65 | 1005.7 |
| 20260506012012 | 25 | 329 | 3.2 | 17.7 | 0.00 | 0.00 | 0.00 | 65 | 1005.9 |
| 20260506011531 | 25 | 1 | 4.8 | 17.7 | 0.00 | 0.00 | 0.00 | 64 | 1006.2 |
| 20260506011013 | 25 | 343 | 3.2 | 12.9 | 0.00 | 0.00 | 0.00 | 64 | 1005.8 |
| 20260506010511 | 25 | 25 | 0.0 | 6.4 | 0.00 | 0.00 | 0.00 | 63 | 1005.6 |
| 20260506010032 | 25 | 25 | 1.6 | 16.1 | 0.00 | 0.00 | 0.00 | 63 | 1005.5 |
| 20260506005510 | 26 | 330 | 3.2 | 16.1 | 0.00 | 0.00 | 0.00 | 63 | 1005.6 |
| 20260506005014 | 26 | 350 | 4.8 | 12.9 | 0.00 | 0.00 | 0.00 | 62 | 1005.1 |
| 20260506004534 | 26 | 43 | 3.2 | 14.5 | 0.00 | 0.00 | 0.00 | 62 | 1005.4 |
| 20260506004016 | 26 | 345 | 4.8 | 14.5 | 0.00 | 0.00 | 0.00 | 61 | 1005.4 |
| 20260506003518 | 27 | 329 | 3.2 | 12.9 | 0.00 | 0.00 | 0.00 | 60 | 1005.3 |
| 20260506003032 | 27 | 25 | 1.6 | 8.0 | 0.00 | 0.00 | 0.00 | 60 | 1005.1 |
| 20260506002512 | 27 | 29 | 3.2 | 12.9 | 0.00 | 0.00 | 0.00 | 60 | 1005.1 |
| 20260506002020 | 27 | 29 | 4.8 | 12.9 | 0.00 | 0.00 | 0.00 | 59 | 1005.2 |
| 20260506001532 | 28 | 4 | 1.6 | 11.3 | 0.00 | 0.00 | 0.00 | 59 | 1005.3 |
| 20260506001013 | 28 | 343 | 3.2 | 14.5 | 0.00 | 0.00 | 0.00 | 58 | 1005.1 |
| 20260506000514 | 28 | 355 | 3.2 | 14.5 | 0.00 | 0.00 | 0.00 | 57 | 1005.2 |
| 20260506000032 | 28 | 0 | 1.6 | 9.7 | 0.00 | 0.00 | 0.00 | 57 | 1004.9 |
| 20260505235513 | 29 | 1 | 3.2 | 19.3 | 0.00 | 0.00 | 0.00 | 57 | 1004.5 |
| 20260505235012 | 29 | 10 | 4.8 | 19.3 | 0.00 | 0.00 | 0.00 | 56 | 1004.4 |
| 20260505234532 | 30 | 330 | 4.8 | 16.1 | 0.00 | 0.00 | 0.00 | 54 | 1004.5 |
| 20260505234016 | 30 | 335 | 3.2 | 12.9 | 0.00 | 0.00 | 0.00 | 51 | 1004.4 |
| 20260505233514 | 30 | 357 | 3.2 | 12.9 | 0.00 | 0.00 | 0.00 | 50 | 1004.4 |
| 20260505233035 | 30 | 333 | 4.8 | 9.7 | 0.00 | 0.00 | 0.00 | 50 | 1004.4 |
| 20260505232512 | 30 | 349 | 3.2 | 16.1 | 0.00 | 0.00 | 0.00 | 50 | 1004.3 |
| 20260505232015 | 30 | 358 | 4.8 | 16.1 | 0.00 | 0.00 | 0.00 | 50 | 1004.3 |
| 20260505231546 | 30 | 360 | 4.8 | 16.1 | 0.00 | 0.00 | 0.00 | 50 | 1004.0 |
| 20260505231018 | 31 | 308 | 3.2 | 14.5 | 0.00 | 0.00 | 0.00 | 50 | 1003.9 |
| 20260505230512 | 31 | 299 | 1.6 | 9.7 | 0.00 | 0.00 | 0.00 | 53 | 1003.7 |
| 20260505230030 | 31 | 0 | 0.0 | 9.7 | 0.00 | 0.00 | 0.00 | 57 | 1003.7 |
| 20260505225514 | 31 | 212 | 3.2 | 8.0 | 0.00 | 0.00 | 0.00 | 56 | 1003.5 |
| 20260505225011 | 31 | 0 | 1.6 | 9.7 | 0.00 | 0.00 | 0.00 | 57 | 1003.4 |
| 20260505224532 | 31 | 0 | 1.6 | 9.7 | 0.00 | 0.00 | 0.00 | 57 | 1003.5 |
| 20260505224012 | 31 | 207 | 1.6 | 9.7 | 0.00 | 0.00 | 0.00 | 56 | 1003.7 |
| 20260505223514 | 31 | 231 | 0.0 | 11.3 | 0.00 | 0.00 | 0.00 | 56 | 1003.5 |
| 20260505223031 | 31 | 212 | 4.8 | 12.9 | 0.00 | 0.00 | 0.00 | 56 | 1003.4 |
| 20260505222517 | 31 | 166 | 1.6 | 12.9 | 0.00 | 0.00 | 0.00 | 56 | 1003.4 |
| 20260505222018 | 31 | 179 | 4.8 | 12.9 | 0.00 | 0.00 | 0.00 | 56 | 1003.2 |
| 20260505221534 | 31 | 183 | 1.6 | 12.9 | 0.00 | 0.00 | 0.00 | 56 | 1003.4 |
| 20260505221014 | 31 | 0 | 0.0 | 4.8 | 0.00 | 0.00 | 0.00 | 56 | 1003.5 |
| 20260505220515 | 31 | 0 | 0.0 | 6.4 | 0.00 | 0.00 | 0.00 | 55 | 1003.5 |
| 20260505220033 | 32 | 204 | 1.6 | 6.4 | 0.00 | 0.00 | 0.00 | 55 | 1003.6 |
| 20260505215515 | 32 | 221 | 0.0 | 9.7 | 0.00 | 0.00 | 0.00 | 54 | 1003.5 |
| 20260505215013 | 32 | 0 | 0.0 | 9.7 | 0.00 | 0.00 | 0.00 | 52 | 1003.5 |
| 20260505214548 | 33 | 222 | 1.6 | 8.0 | 0.00 | 0.00 | 0.00 | 52 | 1003.5 |
| 20260505214018 | 32 | 0 | 0.0 | 8.0 | 0.00 | 0.00 | 0.00 | 53 | 1003.5 |
| 20260505213514 | 32 | 208 | 3.2 | 8.0 | 0.00 | 0.00 | 0.00 | 53 | 1003.6 |
| 20260505213038 | 32 | 0 | 1.6 | 8.0 | 0.00 | 0.00 | 0.00 | 53 | 1003.7 |
| 20260505212514 | 32 | 321 | 0.0 | 8.0 | 0.00 | 0.00 | 0.00 | 53 | 1003.7 |
| 20260505212015 | 32 | 0 | 1.6 | 12.9 | 0.00 | 0.00 | 0.00 | 54 | 1003.7 |
| 20260505211530 | 32 | 215 | 3.2 | 14.5 | 0.00 | 0.00 | 0.00 | 56 | 1003.9 |
| 20260505211013 | 32 | 212 | 3.2 | 19.3 | 0.00 | 0.00 | 0.00 | 56 | 1003.9 |
| 20260505210512 | 31 | 193 | 6.4 | 19.3 | 0.00 | 0.00 | 0.00 | 57 | 1004.0 |
| 20260505210031 | 31 | 231 | 4.8 | 14.5 | 0.00 | 0.00 | 0.00 | 58 | 1003.9 |
| 20260505205516 | 31 | 206 | 3.2 | 14.5 | 0.00 | 0.00 | 0.00 | 58 | 1003.9 |
| 20260505205013 | 31 | 181 | 1.6 | 16.1 | 0.00 | 0.00 | 0.00 | 58 | 1004.1 |
| 20260505204531 | 31 | 218 | 6.4 | 20.9 | 0.00 | 0.00 | 0.00 | 59 | 1004.0 |
| 20260505204013 | 31 | 216 | 8.0 | 25.7 | 0.00 | 0.00 | 0.00 | 58 | 1004.2 |
| 20260505203513 | 31 | 191 | 4.8 | 25.7 | 0.00 | 0.00 | 0.00 | 59 | 1004.4 |
| 20260505203050 | 31 | 235 | 1.6 | 14.5 | 0.00 | 0.00 | 0.00 | 60 | 1004.5 |
| 20260505202513 | 31 | 230 | 4.8 | 11.3 | 0.00 | 0.00 | 0.00 | 60 | 1004.4 |
| 20260505202016 | 31 | 235 | 1.6 | 14.5 | 0.00 | 0.00 | 0.00 | 60 | 1004.6 |
| 20260505201540 | 31 | 241 | 1.6 | 14.5 | 0.00 | 0.00 | 0.00 | 59 | 1004.5 |
| 20260505201016 | 31 | 219 | 3.2 | 17.7 | 0.00 | 0.00 | 0.00 | 60 | 1004.5 |
| 20260505200515 | 30 | 238 | 6.4 | 17.7 | 0.00 | 0.00 | 0.00 | 61 | 1004.5 |
| 20260505200032 | 31 | 313 | 6.4 | 14.5 | 0.00 | 0.00 | 0.00 | 60 | 1004.6 |
| 20260505195515 | 30 | 0 | 1.6 | 20.9 | 0.00 | 0.00 | 0.00 | 61 | 1004.6 |
| 20260505195011 | 30 | 194 | 6.4 | 20.9 | 0.00 | 0.00 | 0.00 | 61 | 1004.5 |
| 20260505194530 | 30 | 0 | 3.2 | 19.3 | 0.00 | 0.00 | 0.00 | 62 | 1004.6 |
| 20260505194017 | 30 | 215 | 4.8 | 29.0 | 0.00 | 0.00 | 0.00 | 62 | 1004.6 |
| 20260505193512 | 30 | 220 | 3.2 | 29.0 | 0.00 | 0.00 | 0.00 | 61 | 1004.6 |
| 20260505193033 | 30 | 198 | 4.8 | 20.9 | 0.00 | 0.00 | 0.00 | 62 | 1004.5 |
| 20260505192513 | 30 | 211 | 8.0 | 20.9 | 0.00 | 0.00 | 0.00 | 63 | 1004.5 |
| 20260505192015 | 30 | 223 | 1.6 | 14.5 | 0.00 | 0.00 | 0.00 | 66 | 1004.5 |
| 20260505191533 | 29 | 0 | 3.2 | 14.5 | 0.00 | 0.00 | 0.00 | 65 | 1004.6 |
| 20260505191014 | 28 | 258 | 4.8 | 19.3 | 0.00 | 0.00 | 0.00 | 66 | 1004.5 |
| 20260505190515 | 28 | 210 | 4.8 | 19.3 | 0.00 | 0.00 | 0.00 | 67 | 1004.6 |
| 20260505190034 | 28 | 232 | 4.8 | 19.3 | 0.00 | 0.00 | 0.00 | 66 | 1004.7 |
| 20260505185518 | 28 | 226 | 6.4 | 19.3 | 0.00 | 0.00 | 0.00 | 67 | 1004.7 |
| 20260505185015 | 28 | 252 | 4.8 | 22.5 | 0.00 | 0.00 | 0.00 | 68 | 1004.7 |
| 20260505184536 | 28 | 207 | 6.4 | 22.5 | 0.00 | 0.00 | 0.00 | 68 | 1004.7 |
| 20260505184015 | 28 | 220 | 6.4 | 19.3 | 0.00 | 0.00 | 0.00 | 68 | 1004.7 |
| 20260505183515 | 28 | 212 | 3.2 | 16.1 | 0.00 | 0.00 | 0.00 | 68 | 1004.7 |
| 20260505183033 | 28 | 231 | 6.4 | 20.9 | 0.00 | 0.00 | 0.00 | 68 | 1004.8 |
| 20260505182513 | 28 | 219 | 3.2 | 20.9 | 0.00 | 0.00 | 0.00 | 68 | 1004.6 |
| 20260505182015 | 28 | 0 | 3.2 | 16.1 | 0.00 | 0.00 | 0.00 | 69 | 1004.6 |
| 20260505181540 | 28 | 219 | 1.6 | 19.3 | 0.00 | 0.00 | 0.00 | 69 | 1004.7 |
| 20260505181012 | 27 | 193 | 3.2 | 22.5 | 0.00 | 0.00 | 0.00 | 69 | 1004.6 |
| 20260505180514 | 27 | 248 | 6.4 | 22.5 | 0.00 | 0.00 | 0.00 | 70 | 1004.7 |
| 20260505180033 | 27 | 249 | 4.8 | 17.7 | 0.00 | 0.00 | 0.00 | 70 | 1004.6 |
| 20260505175514 | 27 | 208 | 4.8 | 14.5 | 0.00 | 0.00 | 0.00 | 69 | 1004.6 |
| 20260505175017 | 27 | 162 | 4.8 | 19.3 | 0.00 | 0.00 | 0.00 | 70 | 1004.5 |
| 20260505174540 | 27 | 195 | 4.8 | 22.5 | 0.00 | 0.00 | 0.00 | 70 | 1004.6 |
| 20260505174013 | 27 | 232 | 6.4 | 22.5 | 0.00 | 0.00 | 0.00 | 70 | 1004.9 |
| 20260505173513 | 27 | 193 | 6.4 | 14.5 | 0.00 | 0.00 | 0.00 | 69 | 1004.9 |
| 20260505173030 | 27 | 200 | 4.8 | 14.5 | 0.00 | 0.00 | 0.00 | 70 | 1005.0 |
| 20260505172515 | 27 | 271 | 3.2 | 22.5 | 0.00 | 0.00 | 0.00 | 70 | 1004.9 |
| 20260505172015 | 27 | 216 | 3.2 | 22.5 | 0.00 | 0.00 | 0.00 | 71 | 1004.9 |
| 20260505171533 | 27 | 218 | 6.4 | 22.5 | 0.00 | 0.00 | 0.00 | 71 | 1005.0 |
| 20260505171014 | 27 | 245 | 8.0 | 22.5 | 0.00 | 0.00 | 0.00 | 71 | 1004.9 |
| 20260505170513 | 27 | 245 | 8.0 | 20.9 | 0.00 | 0.00 | 0.00 | 71 | 1004.8 |
| 20260505170035 | 26 | 183 | 4.8 | 20.9 | 0.00 | 0.00 | 0.00 | 73 | 1005.0 |
| 20260505165513 | 26 | 216 | 6.4 | 30.6 | 0.00 | 0.00 | 0.00 | 72 | 1005.0 |
| 20260505165013 | 26 | 176 | 11.3 | 30.6 | 0.00 | 0.00 | 0.00 | 72 | 1004.9 |
| 20260505164533 | 26 | 236 | 3.2 | 24.1 | 0.00 | 0.00 | 0.00 | 73 | 1004.7 |
| 20260505164012 | 26 | 214 | 11.3 | 24.1 | 0.00 | 0.00 | 0.00 | 72 | 1004.8 |
| 20260505163510 | 26 | 168 | 8.0 | 24.1 | 0.00 | 0.00 | 0.00 | 72 | 1004.8 |
| 20260505163034 | 26 | 218 | 8.0 | 24.1 | 0.00 | 0.00 | 0.00 | 72 | 1004.6 |
| 20260505162514 | 26 | 0 | 4.8 | 16.1 | 0.00 | 0.00 | 0.00 | 73 | 1004.8 |
| 20260505162014 | 26 | 226 | 4.8 | 25.7 | 0.00 | 0.00 | 0.00 | 73 | 1004.9 |
| 20260505161530 | 26 | 230 | 9.7 | 25.7 | 0.00 | 0.00 | 0.00 | 73 | 1004.8 |
| 20260505161014 | 26 | 245 | 8.0 | 24.1 | 0.00 | 0.00 | 0.00 | 74 | 1004.8 |
| 20260505160513 | 25 | 182 | 9.7 | 24.1 | 0.00 | 0.00 | 0.00 | 74 | 1004.8 |
| 20260505153035 | 25 | 267 | 4.8 | 20.9 | 0.00 | 0.00 | 0.00 | 76 | 1004.6 |
| 20260505152513 | 25 | 222 | 9.7 | 20.9 | 0.00 | 0.00 | 0.00 | 77 | 1004.8 |
| 20260505152017 | 25 | 245 | 11.3 | 20.9 | 0.00 | 0.00 | 0.00 | 77 | 1004.7 |
| 20260505151545 | 25 | 209 | 9.7 | 20.9 | 0.00 | 0.00 | 0.00 | 78 | 1004.7 |
| 20260505151013 | 24 | 282 | 6.4 | 20.9 | 0.00 | 0.00 | 0.00 | 79 | 1004.7 |
| 20260505150515 | 24 | 277 | 4.8 | 19.3 | 0.00 | 0.00 | 0.00 | 79 | 1004.9 |
| 20260505140513 | 22 | 161 | 3.2 | 24.1 | 0.00 | 0.00 | 0.00 | 83 | 1004.5 |
| 20260505125014 | 22 | 195 | 4.8 | 17.7 | 0.00 | 0.00 | 0.00 | 85 | 1004.2 |
| 20260505124532 | 22 | 217 | 4.8 | 17.7 | 0.00 | 0.00 | 0.00 | 85 | 1004.2 |
| 20260505124018 | 22 | 0 | 1.6 | 19.3 | 0.00 | 0.00 | 0.00 | 85 | 1004.3 |
| 20260505123513 | 22 | 220 | 6.4 | 19.3 | 0.00 | 0.00 | 0.00 | 84 | 1004.1 |
| 20260505123033 | 22 | 0 | 3.2 | 17.7 | 0.00 | 0.00 | 0.00 | 85 | 1004.0 |
| 20260505122514 | 22 | 0 | 3.2 | 19.3 | 0.00 | 0.00 | 0.00 | 85 | 1003.8 |
| 20260505122013 | 22 | 218 | 3.2 | 19.3 | 0.00 | 0.00 | 0.00 | 85 | 1003.9 |
| 20260505121531 | 22 | 199 | 3.2 | 14.5 | 0.00 | 0.00 | 0.00 | 85 | 1003.8 |
| 20260505121013 | 22 | 200 | 1.6 | 16.1 | 0.00 | 0.00 | 0.00 | 85 | 1003.8 |
| 20260505120517 | 22 | 191 | 3.2 | 17.7 | 0.00 | 0.00 | 0.00 | 85 | 1003.8 |
| 20260505120038 | 21 | 140 | 4.8 | 17.7 | 0.00 | 0.00 | 0.00 | 85 | 1003.8 |
| 20260505115515 | 21 | 0 | 3.2 | 22.5 | 0.00 | 0.00 | 0.00 | 85 | 1003.8 |
| 20260505115013 | 21 | 166 | 3.2 | 22.5 | 0.00 | 0.00 | 0.00 | 85 | 1003.7 |
| 20260505114530 | 21 | 205 | 3.2 | 25.7 | 0.00 | 0.00 | 0.00 | 85 | 1003.7 |
| 20260505114016 | 21 | 0 | 3.2 | 25.7 | 0.00 | 0.00 | 0.00 | 85 | 1003.7 |
| 20260505113514 | 21 | 219 | 3.2 | 14.5 | 0.00 | 0.00 | 0.00 | 85 | 1003.7 |
| 20260505113030 | 21 | 0 | 4.8 | 12.9 | 0.00 | 0.00 | 0.00 | 85 | 1003.5 |
| 20260505112516 | 21 | 0 | 3.2 | 19.3 | 0.00 | 0.00 | 0.00 | 85 | 1003.5 |
| 20260505112013 | 21 | 205 | 4.8 | 19.3 | 0.00 | 0.00 | 0.00 | 85 | 1003.6 |
| 20260505111532 | 21 | 193 | 4.8 | 19.3 | 0.00 | 0.00 | 0.00 | 85 | 1003.6 |
| 20260505111013 | 21 | 204 | 4.8 | 19.3 | 0.00 | 0.00 | 0.00 | 85 | 1003.7 |
| 20260505110514 | 21 | 227 | 6.4 | 19.3 | 0.00 | 0.00 | 0.00 | 85 | 1003.6 |
| 20260505102015 | 21 | 204 | 6.4 | 19.3 | 0.00 | 0.00 | 0.00 | 84 | 1003.6 |
| 20260505101532 | 22 | 214 | 3.2 | 19.3 | 0.00 | 0.00 | 0.00 | 84 | 1003.8 |
| 20260505101014 | 22 | 0 | 3.2 | 22.5 | 0.00 | 0.00 | 0.00 | 84 | 1003.8 |
| 20260505100516 | 22 | 195 | 8.0 | 25.7 | 0.00 | 0.00 | 0.00 | 84 | 1003.8 |
| 20260505100034 | 22 | 196 | 8.0 | 25.7 | 0.00 | 0.00 | 0.00 | 84 | 1003.7 |
| 20260505095514 | 22 | 216 | 1.6 | 24.1 | 0.00 | 0.00 | 0.00 | 84 | 1003.8 |
| 20260505095012 | 22 | 168 | 8.0 | 24.1 | 0.00 | 0.00 | 0.00 | 84 | 1003.8 |
| 20260505094530 | 22 | 222 | 4.8 | 22.5 | 0.00 | 0.00 | 0.00 | 84 | 1004.0 |
| 20260505094013 | 22 | 202 | 6.4 | 22.5 | 0.00 | 0.00 | 0.00 | 84 | 1003.9 |
| 20260505093513 | 21 | 204 | 3.2 | 19.3 | 0.00 | 0.00 | 0.00 | 84 | 1003.9 |
| 20260505093040 | 21 | 258 | 4.8 | 16.1 | 0.00 | 0.00 | 0.00 | 84 | 1003.9 |
| 20260505092512 | 21 | 211 | 4.8 | 17.7 | 0.00 | 0.00 | 0.00 | 84 | 1004.0 |
| 20260505092015 | 21 | 218 | 4.8 | 17.7 | 0.00 | 0.00 | 0.00 | 84 | 1004.3 |
| 20260505091532 | 21 | 214 | 6.4 | 17.7 | 0.00 | 0.00 | 0.00 | 84 | 1004.0 |
| 20260505091015 | 21 | 0 | 4.8 | 22.5 | 0.00 | 0.00 | 0.00 | 84 | 1004.3 |
| 20260505090512 | 21 | 221 | 6.4 | 22.5 | 0.00 | 0.00 | 0.00 | 84 | 1004.5 |
| 20260505090038 | 21 | 206 | 8.0 | 20.9 | 0.00 | 0.00 | 0.00 | 84 | 1004.0 |
| 20260505085514 | 21 | 194 | 8.0 | 20.9 | 0.00 | 0.00 | 0.00 | 84 | 1004.1 |
| 20260505085016 | 21 | 149 | 6.4 | 24.1 | 0.00 | 0.00 | 0.00 | 84 | 1004.0 |
| 20260505084532 | 21 | 200 | 6.4 | 24.1 | 0.00 | 0.00 | 0.00 | 84 | 1004.1 |
| 20260505084012 | 21 | 227 | 4.8 | 17.7 | 0.00 | 0.00 | 0.00 | 84 | 1004.2 |
| 20260505083513 | 21 | 133 | 3.2 | 17.7 | 0.00 | 0.00 | 0.00 | 84 | 1004.3 |
| 20260505083033 | 21 | 198 | 4.8 | 19.3 | 0.00 | 0.00 | 0.00 | 84 | 1004.1 |
| 20260505082511 | 21 | 183 | 6.4 | 19.3 | 0.00 | 0.00 | 0.00 | 84 | 1004.3 |
| 20260505082014 | 21 | 232 | 6.4 | 19.3 | 0.00 | 0.00 | 0.00 | 84 | 1004.2 |
| 20260505081532 | 21 | 224 | 6.4 | 24.1 | 0.00 | 0.00 | 0.00 | 84 | 1004.3 |
| 20260505081012 | 21 | 229 | 8.0 | 25.7 | 0.00 | 0.00 | 0.00 | 83 | 1004.4 |
| 20260505080516 | 21 | 0 | 4.8 | 25.7 | 0.00 | 0.00 | 0.00 | 83 | 1004.4 |
| 20260505080032 | 21 | 166 | 4.8 | 24.1 | 0.00 | 0.00 | 0.00 | 83 | 1004.4 |
| 20260505075514 | 22 | 220 | 8.0 | 20.9 | 0.00 | 0.00 | 0.00 | 83 | 1004.3 |
| 20260505075015 | 22 | 201 | 6.4 | 20.9 | 0.00 | 0.00 | 0.00 | 82 | 1004.4 |
| 20260505074531 | 22 | 189 | 8.0 | 20.9 | 0.00 | 0.00 | 0.00 | 82 | 1004.5 |
| 20260505074012 | 22 | 170 | 4.8 | 19.3 | 0.00 | 0.00 | 0.00 | 82 | 1004.7 |
| 20260505073511 | 22 | 163 | 4.8 | 19.3 | 0.00 | 0.00 | 0.00 | 82 | 1004.8 |
| 20260505073037 | 22 | 229 | 4.8 | 22.5 | 0.00 | 0.00 | 0.00 | 82 | 1005.0 |
| 20260505072513 | 22 | 181 | 1.6 | 22.5 | 0.00 | 0.00 | 0.00 | 81 | 1004.9 |
| 20260505072012 | 22 | 246 | 6.4 | 22.5 | 0.00 | 0.00 | 0.00 | 81 | 1005.1 |
| 20260505071529 | 22 | 213 | 6.4 | 25.7 | 0.00 | 0.00 | 0.00 | 81 | 1005.1 |
| 20260505071011 | 22 | 206 | 6.4 | 25.7 | 0.00 | 0.00 | 0.00 | 81 | 1005.2 |